• în România
  • Lista ţărilor
  • Pe 7 zile
  • Temperatura apei
  • Hartă satelitară
  • Meteo pe hartă
  • Widget-uri
  • user-avatar
    Intrare

    Meteo pe oră la Malanje

    Astăzi, 26 Iunie, Luni

    Timp Temperatura Precipitaţii Vânt Presiune Umiditate
    00:00 +18°C° 0 mm 1 m/s 665 mmHg 56%
    01:00 +18°C° 0 mm 1 m/s 664 mmHg 62%
    02:00 +16°C° 0 mm 1 m/s 664 mmHg 67%
    03:00 +15°C° 0 mm 1 m/s 664 mmHg 72%
    04:00 +15°C° 0 mm 1 m/s 664 mmHg 78%
    05:00 +16°C° 0 mm 1 m/s 664 mmHg 74%
    06:00 +18°C° 0 mm 1 m/s 665 mmHg 70%
    07:00 +19°C° 0 mm 1 m/s 665 mmHg 67%
    08:00 +22°C° 0 mm 1 m/s 666 mmHg 54%
    09:00 +26°C° 0 mm 1 m/s 667 mmHg 41%
    10:00 +30°C° 0 mm 2 m/s 668 mmHg 28%
    11:00 +31°C° 0 mm 2 m/s 668 mmHg 25%
    12:00 +33°C° 0 mm 3 m/s 668 mmHg 22%
    13:00 +34°C° 0 mm 3 m/s 667 mmHg 20%
    14:00 +34°C° 0 mm 3 m/s 667 mmHg 19%
    15:00 +34°C° 0 mm 2 m/s 666 mmHg 19%
    16:00 +34°C° 0 mm 2 m/s 666 mmHg 19%
    17:00 +30°C° 0 mm 2 m/s 665 mmHg 24%
    18:00 +27°C° 0 mm 2 m/s 665 mmHg 29%
    19:00 +24°C° 0 mm 2 m/s 665 mmHg 33%
    20:00 +23°C° 0 mm 2 m/s 665 mmHg 35%
    21:00 +23°C° 0 mm 1 m/s 666 mmHg 37%
    22:00 +22°C° 0 mm 1 m/s 666 mmHg 38%
    23:00 +21°C° 0 mm 1 m/s 666 mmHg 45%

    Mâine, 27 Iunie, Marţi

    Timp Temperatura Precipitaţii Vânt Presiune Umiditate
    00:00 +20°C° 0 mm 1 m/s 666 mmHg 51%
    01:00 +19°C° 0 mm 1 m/s 665 mmHg 57%
    02:00 +19°C° 0 mm 1 m/s 665 mmHg 62%
    03:00 +18°C° 0 mm 1 m/s 665 mmHg 66%
    04:00 +16°C° 0 mm 1 m/s 664 mmHg 70%
    05:00 +18°C° 0 mm 1 m/s 665 mmHg 67%
    06:00 +19°C° 0 mm 1 m/s 666 mmHg 63%
    07:00 +20°C° 0 mm 1 m/s 666 mmHg 59%
    08:00 +23°C° 0 mm 2 m/s 667 mmHg 48%
    09:00 +26°C° 0 mm 2 m/s 668 mmHg 37%
    10:00 +30°C° 0 mm 3 m/s 669 mmHg 26%
    11:00 +31°C° 0 mm 3 m/s 669 mmHg 23%
    12:00 +33°C° 0 mm 3 m/s 668 mmHg 21%
    13:00 +34°C° 0 mm 3 m/s 668 mmHg 19%
    14:00 +34°C° 0 mm 3 m/s 667 mmHg 18%
    15:00 +34°C° 0 mm 2 m/s 667 mmHg 18%
    16:00 +34°C° 0 mm 2 m/s 666 mmHg 17%
    17:00 +30°C° 0 mm 2 m/s 666 mmHg 22%
    18:00 +26°C° 0 mm 2 m/s 665 mmHg 27%
    19:00 +23°C° 0 mm 1 m/s 665 mmHg 31%
    20:00 +22°C° 0 mm 1 m/s 665 mmHg 35%
    21:00 +21°C° 0 mm 1 m/s 665 mmHg 38%
    22:00 +20°C° 0 mm 1 m/s 666 mmHg 42%
    23:00 +19°C° 0 mm 1 m/s 665 mmHg 51%

    Poimâine, 28 Iunie, Miercuri

    Timp Temperatura Precipitaţii Vânt Presiune Umiditate
    00:00 +18°C° 0 mm 1 m/s 665 mmHg 61%
    01:00 +16°C° 0 mm 1 m/s 665 mmHg 71%
    02:00 +16°C° 0 mm 1 m/s 664 mmHg 75%
    03:00 +15°C° 0 mm 1 m/s 664 mmHg 79%
    04:00 +15°C° 0 mm 1 m/s 664 mmHg 84%
    05:00 +16°C° 0 mm 1 m/s 665 mmHg 78%
    06:00 +16°C° 0 mm 1 m/s 665 mmHg 72%
    07:00 +18°C° 0 mm 1 m/s 666 mmHg 67%
    08:00 +21°C° 0 mm 2 m/s 667 mmHg 52%
    09:00 +25°C° 0 mm 3 m/s 668 mmHg 38%
    10:00 +29°C° 0 mm 3 m/s 669 mmHg 24%
    11:00 +30°C° 0 mm 3 m/s 668 mmHg 21%
    12:00 +31°C° 0 mm 3 m/s 668 mmHg 19%
    13:00 +34°C° 0 mm 3 m/s 667 mmHg 17%
    14:00 +33°C° 0 mm 3 m/s 667 mmHg 16%
    15:00 +33°C° 0 mm 3 m/s 666 mmHg 16%
    16:00 +32°C° 0 mm 2 m/s 666 mmHg 16%
    17:00 +29°C° 0 mm 2 m/s 665 mmHg 21%
    18:00 +25°C° 0 mm 2 m/s 665 mmHg 26%
    19:00 +21°C° 0 mm 1 m/s 664 mmHg 32%
    20:00 +21°C° 0 mm 1 m/s 664 mmHg 33%
    21:00 +20°C° 0 mm 1 m/s 665 mmHg 35%
    22:00 +19°C° 0 mm 1 m/s 665 mmHg 37%
    23:00 +19°C° 0 mm 1 m/s 665 mmHg 44%

    29 Iunie, Joi

    Timp Temperatura Precipitaţii Vânt Presiune Umiditate
    00:00 +18°C° 0 mm 1 m/s 664 mmHg 50%
    01:00 +16°C° 0 mm 1 m/s 664 mmHg 57%
    02:00 +15°C° 0 mm 1 m/s 664 mmHg 60%
    03:00 +15°C° 0 mm 1 m/s 664 mmHg 63%
    04:00 +13°C° 0 mm 0 m/s 664 mmHg 65%
    05:00 +15°C° 0 mm 1 m/s 665 mmHg 60%
    06:00 +16°C° 0 mm 1 m/s 666 mmHg 55%
    07:00 +18°C° 0 mm 1 m/s 666 mmHg 50%
    08:00 +20°C° 0 mm 2 m/s 667 mmHg 40%
    09:00 +25°C° 0 mm 3 m/s 668 mmHg 30%
    10:00 +28°C° 0 mm 4 m/s 669 mmHg 20%
    11:00 +30°C° 0 mm 4 m/s 668 mmHg 18%
    12:00 +31°C° 0 mm 3 m/s 668 mmHg 16%
    13:00 +33°C° 0 mm 3 m/s 668 mmHg 15%
    14:00 +33°C° 0 mm 3 m/s 667 mmHg 14%
    15:00 +32°C° 0 mm 2 m/s 667 mmHg 14%
    16:00 +32°C° 0 mm 2 m/s 666 mmHg 14%
    17:00 +29°C° 0 mm 2 m/s 666 mmHg 18%
    18:00 +25°C° 0 mm 2 m/s 666 mmHg 22%
    19:00 +22°C° 0 mm 1 m/s 665 mmHg 26%
    20:00 +20°C° 0 mm 2 m/s 666 mmHg 29%
    21:00 +19°C° 0 mm 2 m/s 666 mmHg 31%
    22:00 +19°C° 0 mm 2 m/s 666 mmHg 33%
    23:00 +17°C° 0 mm 2 m/s 666 mmHg 44%

    30 Iunie, Vineri

    Timp Temperatura Precipitaţii Vânt Presiune Umiditate
    00:00 +16°C° 0 mm 1 m/s 666 mmHg 56%
    01:00 +15°C° 0 mm 1 m/s 665 mmHg 67%
    02:00 +15°C° 0 mm 1 m/s 665 mmHg 69%
    03:00 +15°C° 0 mm 1 m/s 665 mmHg 71%
    04:00 +15°C° 0 mm 1 m/s 665 mmHg 73%
    05:00 +15°C° 0 mm 2 m/s 666 mmHg 67%
    06:00 +15°C° 0 mm 2 m/s 666 mmHg 60%
    07:00 +16°C° 0 mm 2 m/s 667 mmHg 54%
    08:00 +19°C° 0 mm 2 m/s 668 mmHg 43%
    09:00 +24°C° 0 mm 3 m/s 668 mmHg 32%
    10:00 +28°C° 0 mm 4 m/s 669 mmHg 20%
    11:00 +30°C° 0 mm 4 m/s 669 mmHg 18%
    12:00 +31°C° 0 mm 3 m/s 668 mmHg 15%
    13:00 +34°C° 0 mm 3 m/s 668 mmHg 12%
    14:00 +34°C° 0 mm 3 m/s 667 mmHg 12%
    15:00 +34°C° 0 mm 3 m/s 667 mmHg 12%
    16:00 +32°C° 0 mm 2 m/s 666 mmHg 12%
    17:00 +29°C° 0 mm 2 m/s 666 mmHg 16%
    18:00 +25°C° 0 mm 2 m/s 665 mmHg 20%
    19:00 +21°C° 0 mm 2 m/s 665 mmHg 24%
    20:00 +20°C° 0 mm 2 m/s 665 mmHg 26%
    21:00 +19°C° 0 mm 2 m/s 665 mmHg 28%
    22:00 +19°C° 0 mm 1 m/s 665 mmHg 29%
    23:00 +18°C° 0 mm 1 m/s 665 mmHg 37%

    1 Iulie, Sâmbătă

    Timp Temperatura Precipitaţii Vânt Presiune Umiditate
    00:00 +16°C° 0 mm 1 m/s 665 mmHg 45%
    01:00 +15°C° 0 mm 1 m/s 665 mmHg 53%
    02:00 +15°C° 0 mm 1 m/s 665 mmHg 53%
    03:00 +14°C° 0 mm 1 m/s 664 mmHg 54%
    04:00 +14°C° 0 mm 1 m/s 664 mmHg 55%
    05:00 +15°C° 0 mm 2 m/s 665 mmHg 50%
    06:00 +15°C° 0 mm 2 m/s 666 mmHg 45%
    07:00 +15°C° 0 mm 2 m/s 666 mmHg 40%
    08:00 +19°C° 0 mm 3 m/s 667 mmHg 34%
    09:00 +23°C° 0 mm 4 m/s 668 mmHg 28%
    10:00 +28°C° 0 mm 5 m/s 669 mmHg 21%
    11:00 +30°C° 0 mm 4 m/s 668 mmHg 19%
    12:00 +31°C° 0 mm 3 m/s 668 mmHg 16%
    13:00 +34°C° 0 mm 3 m/s 667 mmHg 13%
    14:00 +34°C° 0 mm 3 m/s 667 mmHg 13%
    15:00 +32°C° 0 mm 2 m/s 666 mmHg 13%
    16:00 +32°C° 0 mm 2 m/s 666 mmHg 12%
    17:00 +29°C° 0 mm 2 m/s 665 mmHg 16%
    18:00 +25°C° 0 mm 2 m/s 665 mmHg 20%
    19:00 +21°C° 0 mm 2 m/s 665 mmHg 24%
    20:00 +20°C° 0 mm 2 m/s 665 mmHg 26%
    21:00 +19°C° 0 mm 2 m/s 665 mmHg 27%
    22:00 +19°C° 0 mm 2 m/s 665 mmHg 29%
    23:00 +18°C° 0 mm 2 m/s 665 mmHg 39%
    Arată mai mult